Погода Игнасино

Погода Игнасино : погода сейчас, прогноз погоды и архив. Всё, что Вы хотите узнать о погоде Игнасино!

Хотите узнать прогноз погоды Игнасино? Тогда Вам сюда: Погода Игнасино

Поиск расширенной информации на нашем сайте:

Другие новости

Новости СМИ2

Главная страница сайта

Новости сайта

03.07.2017

Напоминаем, что на нашем специализированном сайте Метеоцентр.Азия вы можете получить высокодетализированные автоматические прогнозы погоды по пунктам России, СНГ и мира в авиационном формате (включающие направление и скорость ветра, видимость, явления погоды, количество и форму облачности, нижнюю и верхнюю границу облачности).


Погода Игнасино - сегодня

Время (UTC), дата Ветер
(°,м/с) 
Видим.   Явления Облачность Т
(°С)
Тd
(°С)
f(%) Тe
(°С)
Pmin
(гПа)
dP
(гПа)
Po
(мм)
O2
(г/м3)
Тmin Tmax R s Состояние
почвы
18 20.02.18 360 (С) 20000 м    ясно 
-32.7 -35.9 73 -34  1020.9  -0.5  734  338           
21 20.02.18 тихо ()   20000 м    ясно 
-31.2 -32.4 89 -31  1019.9  -0.7  734  336           
00 21.02.18 тихо ()   20000 м    10/0 средняя, верхняя 
[Ac lent|Cs]
-28.6 -32.4 70 -29  1019.4  -0.1  734  332  -33      20  равномерный
сухой снег
100% 
03 21.02.18 тихо ()   20000 м    10/0 верхняя 
[Cs]
-21.2 -28.3 53 -21  1017.9  -0.3  734  322           
06 21.02.18 тихо ()   20000 м    3/0 верхняя 
[Ci fib]
-13.3 -24.6 38 -13  1014.9  -1.7  732  312           
09 21.02.18 280 (З) 20000 м    3/0 верхняя 
[Ci sp]
-14.1 -27.6 31 -14  1015.6  0.6  733  313           
15 21.02.18 тихо ()   20000 м    6/0 верхняя 
[Ci sp]
-29.3 -32.5 74 -29  1019.7  0.3  734  333           
18 21.02.18 330 (СЗ) 20000 м    ясно 
-32.5 -36 71 -33  1021.1  0.8  735  338           
21 21.02.18 тихо ()   20000 м    ясно 
-33.9 -37.5 70 -34  1021.9  0.6  735  340           
00 22.02.18 тихо ()   20000 м    10/0 средняя, верхняя 
[Ac lent|Cs]
-32.8 -36.7 68 -33  1022.4  0.6  736  339  -34.7      20  равномерный
сухой снег
100% 
03 22.02.18 160 (Ю) 20000 м    10/0 верхняя 
[Cs]
-22.8 -28.5 60 -26  1020  -0.7  735  325           
06 22.02.18 330 (СЗ) 20000 м    10/3 1000 м верхняя 
[Cu hum|Ci sp]
-13.7 -26.6 33 -16  1016.8  -1.7  734  313           
09 22.02.18 310 (СЗ) 20000 м    10/3 600 м кучево-дожд., верхняя 
[Cb cap|Ci sp]
-14.8 -23.9 46 -17  1018  734  315           
12 22.02.18 010 (С) 20000 м    ясно 
-24.5 -29 66 -28  1021.3  1.7  736  327    -13.2       
15 22.02.18 010 (С) 20000 м    ясно 
-30 -33 75 -34  1023.7  1.4  737  335           
18 22.02.18 360 (С) 20000 м    ясно 
-33.8 -37.1 72 -38  1025.6  1.2  738  341           
21 22.02.18 020 (С) 20000 м    ясно 
-35.9 -39.8 67 -37  1027.8  1.7  739  345           
03 23.02.18 тихо ()   20000 м    3/0 верхняя 
[Ci fib]
-23.5 -30.4 53 -24  1028.2  0.4  741  328           
06 23.02.18 280 (З) 20000 м    5/1 1000 м верхняя 
[Cu hum|Cc]
-13.8 -25.1 38 -17  1026  -0.6  740  316           
09 23.02.18 300 (СЗ) 20000 м    3/0 верхняя 
[Cc]
-14.4 -25.9 37 -17  1027.3  1.2  741  317           
12 23.02.18 340 (С) 20000 м    ясно 
-23.7 -28.8 63 -27  1031  2.2  743  330    -12.9       
15 23.02.18 010 (С) 20000 м    ясно 
-30 -33.2 73 -31  1033.2  744  339           
18 23.02.18 360 (С) 20000 м    ясно 
-32.5 -35.7 73 -36  1034.2  0.6  744  342           
21 23.02.18 360 (С) 20000 м    ясно 
-35.7 -39.6 67 -37  1035  0.2  744  347           
00 24.02.18 тихо ()   20000 м    1/0 верхняя 
[Ci sp]
-34.7 -38.8 66 -35  1035.6  0.7  745  346  -36.8      20  равномерный
сухой снег
100% 
Время (UTC), дата Ветер
(°,м/с) 
Видим.   Явления Облачность Т
(°С)
Тd
(°С)
f(%) Тe
(°С)
Pmin
(гПа)
dP
(гПа)
Po
(мм)
O2
(г/м3)
Тmin Tmax R s Состояние
почвы

Для получения пояснительной информации подведите курсор к названию столбца.

ПОГОДА Игнасино - архив

Всё, что Вы хотите узнать о погоде Игнасино - удобно и подробно!

Выберите нужную дату (начиная с 1 января 2015* года) и нажмите кнопку "Найти".
Будут отображены архивные сводки погоды по пункту Игнасино, начиная с указанной даты.


Отображать данные в формате CSV (для использования в таблицах Excel)


Внимание! Наш архив погоды предназначен исключительно для личного некоммерческого использования в познавательных целях. Если Вам необходимы официальные справки о состоянии погоды (для производственных, юридических, коммерческих и т.п. целей), обращайтесь в органы Росгидромета.

*Примечание: данная дата относится к архиву по метеостанциям СССР (Россия, СНГ, Балтия).
Архив по метеостанциям Зарубежной Европы и Азии (кроме Китая) хранится 10 дней, по другим регионам земного шара (Китай, Африка, Америка, Австралия, Океания) - 1 день.

Игнасино - район местоположения метеостанции


Название, широта, долгота, высота метеостанции:
Игнасино 53.5°ш. 122.4°д. 295 м над ур. моря [Российская Федерация]

Дополнительная информация

В oтличие oт бoльшинства пoгoдных сайтoв мы публикуем пoдрoбную метеoинфoрмацию в детальнoм прoфессиoнальнoм фoрмате.

Характеристики температуры и влажнoсти вoздуха измеряются на высoте 2 м в тени вдали oт зданий и деревьев.
Скoрoсть ветра измеряется на высoте 10 м (на урoвне рoста челoвека скoрoсть ветра ниже в 1.5-2 раза). Если метеoстанция нахoдится в гoрoде или в лесу, тo скoрoсть ветра занижена на 2-4 м/с пo сравнению с oткрытым местoм. Скoрoсть ветра над акватoриями крупных рек и oзёр, а также на вершинах хoлмoв на 2-5 м/с выше, чем в oбычных услoвиях.
Атмoсфернoе давление в разных тoчках местнoсти мoжет значительнo oтличаться oт давления на метеoстанции, в зависимoсти oт услoвий рельефа (при пoдъёме на 10 м давление пoнижается примернo на 1 мм рт.ст.).